Home > Weather > Cuzco > Past weeks

Flag for Peru Past Weather in Cuzco, Cusco, Peru — Yesterday and Last 2 Weeks

Now
32 °F

Clear.


Feels Like: 32 °F
Forecast: 26 / 65 °F
Wind: 2 mph from North

Location: Cuzco Airport

Current Time: Jul 31, 2016 at 12:39:02 AM

Latest Report: Jul 31, 2016 at 12:00 AM


Visibility: N/A

Pressure: 30.54 "Hg (20.01 "Hg at 3379m altitude)

Humidity: 23%

Dew Point: -2 °F

Location of CuzcoLocation

Past Weather in Cuzco — Graph

°F

Cuzco Temperature Yesterday

Maximum temperature yesterday: 70 °F (at 1:00 PM)
Minimum temperature yesterday: 27 °F (at 5:00 AM)
Average temperature yesterday: 46 °F

High & Low Weather Summary for the Past Weeks

 TemperatureHumidityPressure
High75 °F (Jul 25, 3:00 PM)93% (Jul 30, 1:00 AM)30.66 "Hg (Jul 30, 1:00 AM)
Low27 °F (Jul 30, 5:00 AM)4% (Jul 29, 3:00 PM)30.30 "Hg (Jul 25, 4:00 PM)
Average51 °F40%30.50 "Hg
* Reported Jul 16 3:00 AM — Jul 30 11:00 PM, Cuzco, Weather by CustomWeather, © 2016

Note: Actual official high and low records may vary slightly from our data, if they occured in-between our weather recording intervals... More about our weather records

Advertising

Cuzco Weather History for the Previous 24 Hours

Scroll right to see more
 ConditionsComfort  
Time TempWeatherWind HumidityBarometerVisibility
11:00 PM
Sat, Jul 30
39 °FClear.5 mph16%30.54 "HgN/A
10:00 PM39 °FClear.2 mph17%30.54 "HgN/A
9:00 PM41 °FClear.5 mph14%30.51 "HgN/A
8:00 PM41 °FClear.2 mph16%30.48 "HgN/A
7:00 PM50 °FClear.5 mph12%30.45 "HgN/A
6:00 PM59 °FClear.2 mph7%30.42 "HgN/A
5:00 PM63 °FClear.9 mph6%30.42 "HgN/A
4:00 PM66 °FClear.9 mphN/AN/AN/A
3:00 PM68 °FClear.9 mph5%30.39 "HgN/A
2:00 PM70 °FClear.12 mph4%30.42 "HgN/A
1:00 PM70 °FClear.3 mph4%30.45 "HgN/A
12:00 PM64 °FClear.5 mph6%30.48 "HgN/A
11:00 AM59 °FClear.3 mph11%30.54 "HgN/A
10:00 AM52 °FPassing clouds.5 mph13%30.57 "Hg6 mi
9:00 AM45 °FPassing clouds.2 mph25%30.60 "Hg6 mi
8:00 AM39 °FPassing clouds.2 mph30%30.60 "HgN/A
7:00 AM28 °FScattered clouds.No wind55%30.57 "HgN/A
6:00 AM27 °FClear.No wind46%30.54 "HgN/A
5:00 AM27 °FClear.2 mph59%30.54 "HgN/A
4:00 AM28 °FClear.No wind43%30.51 "HgN/A
3:00 AM30 °FClear.No wind43%30.51 "HgN/A
2:00 AM32 °FClear.No wind37%30.48 "HgN/A
1:00 AM32 °FClear.No wind93%30.51 "HgN/A
12:00 AM34 °FClear.No wind29%30.54 "HgN/A
Weather by CustomWeather, © 2016

See weather overviewHow to use our weather pages